TimeEST,TemperatureF,Dew PointF,Humidity,Sea Level PressureIn,VisibilityMPH,Wind Direction,Wind SpeedMPH,Gust SpeedMPH,PrecipitationIn,Events,Conditions,WindDirDegrees,DateUTC
12:53 AM,25.0,23.0,92,29.91,4.0,North,5.8,-,N/A,,Overcast,350,2013-02-05 05:53:00
1:22 AM,24.8,21.2,86,29.85,4.0,North,5.8,-,N/A,,Overcast,10,2013-02-05 06:22:00
1:37 AM,24.8,21.2,86,29.86,4.0,North,3.5,-,N/A,,Overcast,10,2013-02-05 06:37:00
1:53 AM,24.1,21.9,91,29.91,4.0,North,5.8,-,N/A,,Overcast,360,2013-02-05 06:53:00
2:44 AM,24.8,21.2,86,29.87,3.0,North,3.5,-,N/A,,Overcast,360,2013-02-05 07:44:00
2:53 AM,23.0,21.9,96,29.91,3.0,North,4.6,-,N/A,,Overcast,350,2013-02-05 07:53:00
3:53 AM,23.0,21.0,92,29.93,3.0,NNW,5.8,-,N/A,,Overcast,340,2013-02-05 08:53:00
4:50 AM,21.2,19.4,93,29.87,5.0,North,6.9,-,N/A,,Overcast,10,2013-02-05 09:50:00
4:53 AM,21.9,19.9,92,29.91,5.0,North,6.9,-,N/A,,Overcast,10,2013-02-05 09:53:00
5:44 AM,21.2,21.2,100,29.87,3.0,North,5.8,-,N/A,,Overcast,10,2013-02-05 10:44:00
5:53 AM,21.9,21.0,96,29.91,2.5,NNE,4.6,-,N/A,,Overcast,20,2013-02-05 10:53:00
6:53 AM,21.9,21.0,96,29.91,3.0,NNE,3.5,-,N/A,,Overcast,30,2013-02-05 11:53:00
7:53 AM,21.9,21.0,96,29.95,2.5,North,5.8,-,N/A,,Overcast,350,2013-02-05 12:53:00
8:08 AM,21.2,21.2,100,29.89,3.0,North,4.6,-,N/A,,Overcast,350,2013-02-05 13:08:00
8:19 AM,21.2,21.2,100,29.90,2.5,North,3.5,-,N/A,,Overcast,350,2013-02-05 13:19:00
8:27 AM,23.0,21.2,93,29.89,3.0,Calm,Calm,-,N/A,,Overcast,0,2013-02-05 13:27:00
8:53 AM,23.0,19.9,88,29.94,4.0,North,3.5,-,N/A,,Overcast,350,2013-02-05 13:53:00
9:00 AM,23.0,19.4,86,29.90,4.0,North,4.6,-,N/A,,Overcast,350,2013-02-05 14:00:00
9:19 AM,21.2,19.4,93,29.91,1.8,NNW,6.9,-,N/A,,Overcast,330,2013-02-05 14:19:00
9:36 AM,21.2,19.4,93,29.91,1.8,NW,6.9,-,N/A,,Overcast,310,2013-02-05 14:36:00
9:53 AM,21.9,21.0,96,29.96,2.0,NW,4.6,-,N/A,,Overcast,320,2013-02-05 14:53:00
10:18 AM,23.0,19.4,86,29.91,2.5,NNW,3.5,-,N/A,,Overcast,340,2013-02-05 15:18:00
10:25 AM,23.0,19.4,86,29.91,3.0,NW,3.5,-,N/A,,Overcast,320,2013-02-05 15:25:00
10:35 AM,23.0,21.2,93,29.92,3.0,NW,3.5,-,N/A,,Overcast,320,2013-02-05 15:35:00
11:39 AM,24.8,17.6,74,29.91,10.0,West,5.8,-,N/A,,Overcast,280,2013-02-05 16:39:00
11:53 AM,24.1,19.0,81,29.96,10.0,West,6.9,-,N/A,,Overcast,260,2013-02-05 16:53:00
12:32 PM,24.8,19.4,80,29.88,6.0,West,3.5,-,N/A,,Haze,260,2013-02-05 17:32:00
12:53 PM,25.0,19.0,78,29.91,7.0,SW,6.9,-,N/A,,Scattered Clouds,220,2013-02-05 17:53:00
1:36 PM,26.6,19.4,74,29.86,8.0,West,5.8,-,N/A,,Mostly Cloudy,260,2013-02-05 18:36:00
1:53 PM,26.1,19.0,75,29.91,7.0,Variable,5.8,-,N/A,,Partly Cloudy,0,2013-02-05 18:53:00
2:53 PM,27.0,18.0,69,29.90,10.0,SW,11.5,-,N/A,,Mostly Cloudy,220,2013-02-05 19:53:00
3:53 PM,27.0,19.0,72,29.90,10.0,SSW,11.5,-,N/A,,Overcast,210,2013-02-05 20:53:00
4:53 PM,27.0,19.9,75,29.88,10.0,South,12.7,-,N/A,,Overcast,190,2013-02-05 21:53:00
5:24 PM,26.6,21.2,80,29.85,1.8,SSW,9.2,-,0.00,Snow,Light Snow,200,2013-02-05 22:24:00
5:42 PM,26.6,21.2,80,29.84,3.0,South,5.8,-,0.00,Snow,Light Snow,180,2013-02-05 22:42:00
5:53 PM,26.1,21.9,84,29.90,8.0,South,8.1,-,0.00,,Overcast,190,2013-02-05 22:53:00
6:53 PM,27.0,23.0,85,29.91,8.0,South,5.8,-,0.00,,Overcast,190,2013-02-05 23:53:00
7:22 PM,26.6,23.0,86,29.88,1.8,SW,5.8,-,0.00,Snow,Light Snow,230,2013-02-06 00:22:00
7:33 PM,26.6,23.0,86,29.88,3.0,SSW,5.8,-,0.00,Snow,Light Snow,210,2013-02-06 00:33:00
7:39 PM,26.6,23.0,86,29.89,1.8,SW,4.6,-,0.00,Snow,Light Snow,220,2013-02-06 00:39:00
7:45 PM,26.6,23.0,86,29.89,0.8,SW,6.9,-,0.00,Snow,Light Snow,220,2013-02-06 00:45:00
7:53 PM,27.0,24.1,89,29.94,0.8,SW,6.9,-,0.00,Snow,Light Snow,230,2013-02-06 00:53:00
8:09 PM,26.6,24.8,93,29.89,1.2,SW,6.9,-,0.01,Snow,Light Snow,220,2013-02-06 01:09:00
8:27 PM,26.6,24.8,93,29.90,2.5,SW,6.9,-,0.01,Snow,Light Snow,220,2013-02-06 01:27:00
8:35 PM,26.6,24.8,93,29.90,3.0,SSW,6.9,-,0.01,Snow,Light Snow,200,2013-02-06 01:35:00
8:53 PM,27.0,25.0,92,29.95,4.0,SW,5.8,-,0.01,,Overcast,220,2013-02-06 01:53:00
9:23 PM,26.6,24.8,93,29.91,4.0,SW,4.6,-,N/A,,Overcast,220,2013-02-06 02:23:00
9:53 PM,27.0,25.0,92,29.97,4.0,Calm,Calm,-,N/A,,Overcast,0,2013-02-06 02:53:00
10:20 PM,26.6,24.8,93,29.94,4.0,Calm,Calm,-,N/A,,Overcast,0,2013-02-06 03:20:00
10:53 PM,28.0,25.0,88,29.99,4.0,West,4.6,-,N/A,,Overcast,260,2013-02-06 03:53:00
11:53 PM,28.9,26.1,89,30.00,4.0,WNW,6.9,-,N/A,,Overcast,300,2013-02-06 04:53:00